Year,Month,Day,Hour,Minute,Value (Times are PST for temperature in C)
2014,07,01,00,00,12.20
2014,07,01,00,01,12.20
2014,07,01,00,02,12.20
2014,07,01,00,03,12.20
2014,07,01,00,04,12.10
2014,07,01,00,05,12.10
2014,07,01,00,06,12.10
2014,07,01,00,07,12.10
2014,07,01,00,08,12.10
2014,07,01,00,09,12.10
2014,07,01,00,10,12.00
2014,07,01,00,11,12.00
2014,07,01,00,12,12.00
2014,07,01,00,13,12.00
2014,07,01,00,14,12.00
2014,07,01,00,15,12.00
2014,07,01,00,16,12.00
2014,07,01,00,17,11.90
2014,07,01,00,18,11.90
2014,07,01,00,19,11.90
2014,07,01,00,20,11.90
2014,07,01,00,21,11.90
2014,07,01,00,22,11.90
2014,07,01,00,23,11.90
2014,07,01,00,24,11.90
2014,07,01,00,25,11.90
2014,07,01,00,26,11.90
2014,07,01,00,27,11.90
2014,07,01,00,28,11.90
2014,07,01,00,29,11.90
2014,07,01,00,30,11.90
2014,07,01,00,31,11.90
2014,07,01,00,32,11.80
2014,07,01,00,33,11.80
2014,07,01,00,34,11.80
2014,07,01,00,35,11.80
2014,07,01,00,36,11.80
2014,07,01,00,37,11.80
2014,07,01,00,38,11.80
2014,07,01,00,39,11.70
2014,07,01,00,40,11.70
2014,07,01,00,41,11.70
2014,07,01,00,42,11.70
2014,07,01,00,43,11.70
2014,07,01,00,44,11.70
2014,07,01,00,45,11.70
2014,07,01,00,46,11.60
2014,07,01,00,47,11.60
2014,07,01,00,48,11.60
2014,07,01,00,49,11.60
2014,07,01,00,50,11.60
2014,07,01,00,51,11.60
2014,07,01,00,52,11.60
2014,07,01,00,53,11.60
2014,07,01,00,54,11.60
2014,07,01,00,55,11.60
2014,07,01,00,56,11.70
2014,07,01,00,57,11.70
2014,07,01,00,58,11.70
2014,07,01,00,59,11.70
2014,07,01,01,00,11.70
2014,07,01,01,01,11.60
2014,07,01,01,02,11.60
2014,07,01,01,03,11.60
2014,07,01,01,04,11.60
2014,07,01,01,05,11.60
2014,07,01,01,06,11.60
2014,07,01,01,07,11.60
2014,07,01,01,08,11.70
2014,07,01,01,09,11.70
2014,07,01,01,10,11.70
2014,07,01,01,11,11.70
2014,07,01,01,12,11.70
2014,07,01,01,13,11.70
2014,07,01,01,14,11.70
2014,07,01,01,15,11.70
2014,07,01,01,16,11.70
2014,07,01,01,17,11.70
2014,07,01,01,18,11.70
2014,07,01,01,19,11.70
2014,07,01,01,20,11.70
2014,07,01,01,21,11.80
2014,07,01,01,22,11.80
2014,07,01,01,23,11.80
2014,07,01,01,24,11.80
2014,07,01,01,25,11.80
2014,07,01,01,26,11.80
2014,07,01,01,27,11.80
2014,07,01,01,28,11.80
2014,07,01,01,29,11.80
2014,07,01,01,30,11.80
2014,07,01,01,31,11.80
2014,07,01,01,32,11.80
2014,07,01,01,33,11.80
2014,07,01,01,34,11.80
2014,07,01,01,35,11.80
2014,07,01,01,36,11.80
2014,07,01,01,37,11.80
2014,07,01,01,38,11.80
2014,07,01,01,39,11.80
2014,07,01,01,40,11.80
2014,07,01,01,41,11.80
2014,07,01,01,42,11.80
2014,07,01,01,43,11.80
2014,07,01,01,44,11.80
2014,07,01,01,45,11.70
2014,07,01,01,46,11.70
2014,07,01,01,47,11.70
2014,07,01,01,48,11.60
2014,07,01,01,49,11.60
2014,07,01,01,50,11.60
2014,07,01,01,51,11.50
2014,07,01,01,52,11.50
2014,07,01,01,53,11.40
2014,07,01,01,54,11.40
2014,07,01,01,55,11.30
2014,07,01,01,56,11.30
2014,07,01,01,57,11.30
2014,07,01,01,58,11.20
2014,07,01,01,59,11.20
2014,07,01,02,00,11.20
2014,07,01,02,01,11.20
2014,07,01,02,02,11.10
2014,07,01,02,03,11.10
2014,07,01,02,04,11.10
2014,07,01,02,05,11.00
2014,07,01,02,06,11.00
2014,07,01,02,07,10.90
2014,07,01,02,08,10.90
2014,07,01,02,09,10.90
2014,07,01,02,10,10.90
2014,07,01,02,11,10.90
2014,07,01,02,12,10.90
2014,07,01,02,13,10.90
2014,07,01,02,14,10.90
2014,07,01,02,15,10.90
2014,07,01,02,16,10.90
2014,07,01,02,17,10.90
2014,07,01,02,18,10.90
2014,07,01,02,19,10.90
2014,07,01,02,20,10.90
2014,07,01,02,21,10.90
2014,07,01,02,22,10.90
2014,07,01,02,23,10.90
2014,07,01,02,24,10.90
2014,07,01,02,25,10.90
2014,07,01,02,26,10.90
2014,07,01,02,27,10.90
2014,07,01,02,28,10.90
2014,07,01,02,29,10.90
2014,07,01,02,30,10.90
2014,07,01,02,31,10.90
2014,07,01,02,32,10.90
2014,07,01,02,33,10.90
2014,07,01,02,34,10.80
2014,07,01,02,35,10.80
2014,07,01,02,36,10.80
2014,07,01,02,37,10.80
2014,07,01,02,38,10.80
2014,07,01,02,39,10.80
2014,07,01,02,40,10.70
2014,07,01,02,41,10.70
2014,07,01,02,42,10.70
2014,07,01,02,43,10.70
2014,07,01,02,44,10.70
2014,07,01,02,45,10.60
2014,07,01,02,46,10.60
2014,07,01,02,47,10.60
2014,07,01,02,48,10.60
2014,07,01,02,49,10.60
2014,07,01,02,50,10.60
2014,07,01,02,51,10.50
2014,07,01,02,52,10.60
2014,07,01,02,53,10.60
2014,07,01,02,54,10.60
2014,07,01,02,55,10.60
2014,07,01,02,56,10.60
2014,07,01,02,57,10.60
2014,07,01,02,58,10.70
2014,07,01,02,59,10.70
2014,07,01,03,00,10.70
2014,07,01,03,01,10.70
2014,07,01,03,02,10.70
2014,07,01,03,03,10.70
2014,07,01,03,04,10.60
2014,07,01,03,05,10.60
2014,07,01,03,06,10.60
2014,07,01,03,07,10.60
2014,07,01,03,08,10.60
2014,07,01,03,09,10.60
2014,07,01,03,10,10.50
2014,07,01,03,11,10.50
2014,07,01,03,12,10.50
2014,07,01,03,13,10.40
2014,07,01,03,14,10.40
2014,07,01,03,15,10.40
2014,07,01,03,16,10.40
2014,07,01,03,17,10.40
2014,07,01,03,18,10.30
2014,07,01,03,19,10.30
2014,07,01,03,20,10.30
2014,07,01,03,21,10.40
2014,07,01,03,22,10.40
2014,07,01,03,23,10.40
2014,07,01,03,24,10.40
2014,07,01,03,25,10.50
2014,07,01,03,26,10.50
2014,07,01,03,27,10.50
2014,07,01,03,28,10.50
2014,07,01,03,29,10.50
2014,07,01,03,30,10.50
2014,07,01,03,31,10.50
2014,07,01,03,32,10.50
2014,07,01,03,33,10.50
2014,07,01,03,34,10.50
2014,07,01,03,35,10.50
2014,07,01,03,36,10.50
2014,07,01,03,37,10.40
2014,07,01,03,38,10.40
2014,07,01,03,39,10.40
2014,07,01,03,40,10.40
2014,07,01,03,41,10.40
2014,07,01,03,42,10.40
2014,07,01,03,43,10.40
2014,07,01,03,44,10.40
2014,07,01,03,45,10.30
2014,07,01,03,46,10.30
2014,07,01,03,47,10.30
2014,07,01,03,48,10.30
2014,07,01,03,49,10.30
2014,07,01,03,50,10.30
2014,07,01,03,51,10.30
2014,07,01,03,52,10.30
2014,07,01,03,53,10.30
2014,07,01,03,54,10.30
2014,07,01,03,55,10.40
2014,07,01,03,56,10.40
2014,07,01,03,57,10.40
2014,07,01,03,58,10.40
2014,07,01,03,59,10.40
2014,07,01,04,00,10.40
2014,07,01,04,01,10.40
2014,07,01,04,02,10.30
2014,07,01,04,03,10.30
2014,07,01,04,04,10.30
2014,07,01,04,05,10.30
2014,07,01,04,06,10.30
2014,07,01,04,07,10.30
2014,07,01,04,08,10.30
2014,07,01,04,09,10.30
2014,07,01,04,10,10.30
2014,07,01,04,11,10.20
2014,07,01,04,12,10.20
2014,07,01,04,13,10.30
2014,07,01,04,14,10.30
2014,07,01,04,15,10.30
2014,07,01,04,16,10.30
2014,07,01,04,17,10.30
2014,07,01,04,18,10.30
2014,07,01,04,19,10.30
2014,07,01,04,20,10.30
2014,07,01,04,21,10.30
2014,07,01,04,22,10.20
2014,07,01,04,23,10.20
2014,07,01,04,24,10.20
2014,07,01,04,25,10.20
2014,07,01,04,26,10.20
2014,07,01,04,27,10.20
2014,07,01,04,28,10.20
2014,07,01,04,29,10.20
2014,07,01,04,30,10.20
2014,07,01,04,31,10.20
2014,07,01,04,32,10.20
2014,07,01,04,33,10.30
2014,07,01,04,34,10.30
2014,07,01,04,35,10.30
2014,07,01,04,36,10.30
2014,07,01,04,37,10.30
2014,07,01,04,38,10.30
2014,07,01,04,39,10.30
2014,07,01,04,40,10.30
2014,07,01,04,41,10.30
2014,07,01,04,42,10.30
2014,07,01,04,43,10.30
2014,07,01,04,44,10.30
2014,07,01,04,45,10.30
2014,07,01,04,46,10.30
2014,07,01,04,47,10.30
2014,07,01,04,48,10.30
2014,07,01,04,49,10.30
2014,07,01,04,50,10.30
2014,07,01,04,51,10.30
2014,07,01,04,52,10.30
2014,07,01,04,53,10.30
2014,07,01,04,54,10.30
2014,07,01,04,55,10.30
2014,07,01,04,56,10.30
2014,07,01,04,57,10.30
2014,07,01,04,58,10.20
2014,07,01,04,59,10.20
2014,07,01,05,00,10.20
2014,07,01,05,01,10.20
2014,07,01,05,02,10.20
2014,07,01,05,03,10.20
2014,07,01,05,04,10.20
2014,07,01,05,05,10.20
2014,07,01,05,06,10.10
2014,07,01,05,07,10.10
2014,07,01,05,08,10.10
2014,07,01,05,09,10.10
2014,07,01,05,10,10.10
2014,07,01,05,11,10.10
2014,07,01,05,12,10.10
2014,07,01,05,13,10.10
2014,07,01,05,14,10.10
2014,07,01,05,15,10.00
2014,07,01,05,16,10.00
2014,07,01,05,17,10.00
2014,07,01,05,18,10.00
2014,07,01,05,19,10.00
2014,07,01,05,20,10.00
2014,07,01,05,21,10.00
2014,07,01,05,22,9.90
2014,07,01,05,23,9.90
2014,07,01,05,24,9.90
2014,07,01,05,25,9.90
2014,07,01,05,26,10.00
2014,07,01,05,27,10.00
2014,07,01,05,28,10.00
2014,07,01,05,29,10.10
2014,07,01,05,30,10.10
2014,07,01,05,31,10.10
2014,07,01,05,32,10.10
2014,07,01,05,33,10.10
2014,07,01,05,34,10.10
2014,07,01,05,35,10.10
2014,07,01,05,36,10.10
2014,07,01,05,37,10.10
2014,07,01,05,38,10.10
2014,07,01,05,39,10.10
2014,07,01,05,40,10.10
2014,07,01,05,41,10.10
2014,07,01,05,42,10.10
2014,07,01,05,43,10.10
2014,07,01,05,44,10.10
2014,07,01,05,45,10.10
2014,07,01,05,46,10.10
2014,07,01,05,47,10.10
2014,07,01,05,48,10.20
2014,07,01,05,49,10.20
2014,07,01,05,50,10.20
2014,07,01,05,51,10.20
2014,07,01,05,52,10.20
2014,07,01,05,53,10.20
2014,07,01,05,54,10.20
2014,07,01,05,55,10.20
2014,07,01,05,56,10.20
2014,07,01,05,57,10.20
2014,07,01,05,58,10.20
2014,07,01,05,59,10.20
2014,07,01,06,00,10.20
2014,07,01,06,01,10.30
2014,07,01,06,02,10.30
2014,07,01,06,03,10.30
2014,07,01,06,04,10.40
2014,07,01,06,05,10.40
2014,07,01,06,06,10.50
2014,07,01,06,07,10.50
2014,07,01,06,08,10.60
2014,07,01,06,09,10.60
2014,07,01,06,10,10.60
2014,07,01,06,11,10.60
2014,07,01,06,12,10.70
2014,07,01,06,13,10.70
2014,07,01,06,14,10.70
2014,07,01,06,15,10.70
2014,07,01,06,16,10.80
2014,07,01,06,17,10.80
2014,07,01,06,18,10.80
2014,07,01,06,19,10.80
2014,07,01,06,20,10.80
2014,07,01,06,21,10.80
2014,07,01,06,22,10.80
2014,07,01,06,23,10.80
2014,07,01,06,24,10.80
2014,07,01,06,25,10.90
2014,07,01,06,26,10.90
2014,07,01,06,27,10.90
2014,07,01,06,28,10.90
2014,07,01,06,29,10.90
2014,07,01,06,30,10.90
2014,07,01,06,31,10.90
2014,07,01,06,32,11.00
2014,07,01,06,33,11.00
2014,07,01,06,34,11.00
2014,07,01,06,35,11.10
2014,07,01,06,36,11.10
2014,07,01,06,37,11.10
2014,07,01,06,38,11.10
2014,07,01,06,39,11.20
2014,07,01,06,40,11.20
2014,07,01,06,41,11.20
2014,07,01,06,42,11.30
2014,07,01,06,43,11.30
2014,07,01,06,44,11.40
2014,07,01,06,45,11.40
2014,07,01,06,46,11.40
2014,07,01,06,47,11.50
2014,07,01,06,48,11.50
2014,07,01,06,49,11.50
2014,07,01,06,50,11.50
2014,07,01,06,51,11.50
2014,07,01,06,52,11.60
2014,07,01,06,53,11.60
2014,07,01,06,54,11.60
2014,07,01,06,55,11.60
2014,07,01,06,56,11.60
2014,07,01,06,57,11.70
2014,07,01,06,58,11.70
2014,07,01,06,59,11.70
2014,07,01,07,00,11.70
2014,07,01,07,01,11.70
2014,07,01,07,02,11.70
2014,07,01,07,03,11.80
2014,07,01,07,04,11.80
2014,07,01,07,05,11.80
2014,07,01,07,06,11.80
2014,07,01,07,07,11.80
2014,07,01,07,08,11.80
2014,07,01,07,09,11.80
2014,07,01,07,10,11.80
2014,07,01,07,11,11.80
2014,07,01,07,12,11.80
2014,07,01,07,13,11.80
2014,07,01,07,14,11.80
2014,07,01,07,15,11.80
2014,07,01,07,16,11.90
2014,07,01,07,17,11.90
2014,07,01,07,18,11.90
2014,07,01,07,19,11.90
2014,07,01,07,20,11.90
2014,07,01,07,21,12.00
2014,07,01,07,22,12.00
2014,07,01,07,23,12.10
2014,07,01,07,24,12.10
2014,07,01,07,25,12.20
2014,07,01,07,26,12.20
2014,07,01,07,27,12.20
2014,07,01,07,28,12.20
2014,07,01,07,29,12.30
2014,07,01,07,30,12.30
2014,07,01,07,31,12.30
2014,07,01,07,32,12.30
2014,07,01,07,33,12.40
2014,07,01,07,34,12.50
2014,07,01,07,35,12.60
2014,07,01,07,36,12.70
2014,07,01,07,37,12.70
2014,07,01,07,38,12.80
2014,07,01,07,39,12.80
2014,07,01,07,40,12.90
2014,07,01,07,41,13.00
2014,07,01,07,42,13.00
2014,07,01,07,43,13.10
2014,07,01,07,44,13.10
2014,07,01,07,45,13.20
2014,07,01,07,46,13.20
2014,07,01,07,47,13.20
2014,07,01,07,48,13.20
2014,07,01,07,49,13.30
2014,07,01,07,50,13.30
2014,07,01,07,51,13.40
2014,07,01,07,52,13.50
2014,07,01,07,53,13.50
2014,07,01,07,54,13.60
2014,07,01,07,55,13.70
2014,07,01,07,56,13.80
2014,07,01,07,57,13.80
2014,07,01,07,58,13.90
2014,07,01,07,59,14.00
2014,07,01,08,00,14.00
2014,07,01,08,01,14.10
2014,07,01,08,02,14.20
2014,07,01,08,03,14.30
2014,07,01,08,04,14.30
2014,07,01,08,05,14.40
2014,07,01,08,06,14.40
2014,07,01,08,07,14.50
2014,07,01,08,08,14.60
2014,07,01,08,09,14.60
2014,07,01,08,10,14.60
2014,07,01,08,11,14.60
2014,07,01,08,12,14.70
2014,07,01,08,13,14.60
2014,07,01,08,14,14.70
2014,07,01,08,15,14.70
2014,07,01,08,16,14.80
2014,07,01,08,17,14.80
2014,07,01,08,18,14.90
2014,07,01,08,19,15.00
2014,07,01,08,20,15.10
2014,07,01,08,21,15.20
2014,07,01,08,22,15.30
2014,07,01,08,23,15.40
2014,07,01,08,24,15.40
2014,07,01,08,25,15.50
2014,07,01,08,26,15.50
2014,07,01,08,27,15.60
2014,07,01,08,28,15.60
2014,07,01,08,29,15.70
2014,07,01,08,30,15.80
2014,07,01,08,31,15.80
2014,07,01,08,32,15.90
2014,07,01,08,33,15.90
2014,07,01,08,34,16.00
2014,07,01,08,35,16.00
2014,07,01,08,36,15.90
2014,07,01,08,37,15.90
2014,07,01,08,38,15.90
2014,07,01,08,39,15.90
2014,07,01,08,40,15.90
2014,07,01,08,41,15.90
2014,07,01,08,42,15.90
2014,07,01,08,43,15.90
2014,07,01,08,44,15.90
2014,07,01,08,45,15.90
2014,07,01,08,46,15.90
2014,07,01,08,47,16.00
2014,07,01,08,48,16.10
2014,07,01,08,49,16.10
2014,07,01,08,50,16.20
2014,07,01,08,51,16.20
2014,07,01,08,52,16.30
2014,07,01,08,53,16.30
2014,07,01,08,54,16.40
2014,07,01,08,55,16.40
2014,07,01,08,56,16.40
2014,07,01,08,57,16.40
2014,07,01,08,58,16.50
2014,07,01,08,59,16.60
2014,07,01,09,00,16.60
2014,07,01,09,01,16.70
2014,07,01,09,02,16.70
2014,07,01,09,03,16.80
2014,07,01,09,04,16.80
2014,07,01,09,05,16.90
2014,07,01,09,06,16.90
2014,07,01,09,07,17.00
2014,07,01,09,08,17.00
2014,07,01,09,09,17.10
2014,07,01,09,10,17.10
2014,07,01,09,11,17.10
2014,07,01,09,12,17.10
2014,07,01,09,13,17.20
2014,07,01,09,14,17.20
2014,07,01,09,15,17.30
2014,07,01,09,16,17.40
2014,07,01,09,17,17.40
2014,07,01,09,18,17.40
2014,07,01,09,19,17.50
2014,07,01,09,20,17.50
2014,07,01,09,21,17.60
2014,07,01,09,22,17.60
2014,07,01,09,23,17.70
2014,07,01,09,24,17.80
2014,07,01,09,25,17.80
2014,07,01,09,26,17.80
2014,07,01,09,27,17.80
2014,07,01,09,28,17.90
2014,07,01,09,29,17.90
2014,07,01,09,30,18.00
2014,07,01,09,31,18.10
2014,07,01,09,32,18.20
2014,07,01,09,33,18.30
2014,07,01,09,34,18.30
2014,07,01,09,35,18.40
2014,07,01,09,36,18.40
2014,07,01,09,37,18.50
2014,07,01,09,38,18.60
2014,07,01,09,39,18.60
2014,07,01,09,40,18.60
2014,07,01,09,41,18.60
2014,07,01,09,42,18.60
2014,07,01,09,43,18.70
2014,07,01,09,44,18.70
2014,07,01,09,45,18.80
2014,07,01,09,46,18.90
2014,07,01,09,47,19.00
2014,07,01,09,48,19.10
2014,07,01,09,49,19.10
2014,07,01,09,50,19.20
2014,07,01,09,51,19.30
2014,07,01,09,52,19.40
2014,07,01,09,53,19.40
2014,07,01,09,54,19.40
2014,07,01,09,55,19.40
2014,07,01,09,56,19.40
2014,07,01,09,57,19.50
2014,07,01,09,58,19.50
2014,07,01,09,59,19.60
2014,07,01,10,00,19.70
2014,07,01,10,01,19.70
2014,07,01,10,02,19.80
2014,07,01,10,03,19.90
2014,07,01,10,04,19.90
2014,07,01,10,05,20.00
2014,07,01,10,06,20.10
2014,07,01,10,07,20.10
2014,07,01,10,08,20.20
2014,07,01,10,09,20.20
2014,07,01,10,10,20.20
2014,07,01,10,11,20.30
2014,07,01,10,12,20.30
2014,07,01,10,13,20.30
2014,07,01,10,14,20.40
2014,07,01,10,15,20.50
2014,07,01,10,16,20.60
2014,07,01,10,17,20.60
2014,07,01,10,18,20.60
2014,07,01,10,19,20.60
2014,07,01,10,20,20.60
2014,07,01,10,21,20.50
2014,07,01,10,22,20.50
2014,07,01,10,23,20.40
2014,07,01,10,24,20.30
2014,07,01,10,25,20.30
2014,07,01,10,26,20.30
2014,07,01,10,27,20.30
2014,07,01,10,28,20.30
2014,07,01,10,29,20.30
2014,07,01,10,30,20.40
2014,07,01,10,31,20.40
2014,07,01,10,32,20.40
2014,07,01,10,33,20.40
2014,07,01,10,34,20.50
2014,07,01,10,35,20.40
2014,07,01,10,36,20.40
2014,07,01,10,37,20.40
2014,07,01,10,38,20.40
2014,07,01,10,39,20.40
2014,07,01,10,40,20.40
2014,07,01,10,41,20.50
2014,07,01,10,42,20.50
2014,07,01,10,43,20.60
2014,07,01,10,44,20.60
2014,07,01,10,45,20.70
2014,07,01,10,46,20.80
2014,07,01,10,47,20.90
2014,07,01,10,48,21.00
2014,07,01,10,49,21.10
2014,07,01,10,50,21.20
2014,07,01,10,51,21.20
2014,07,01,10,52,21.20
2014,07,01,10,53,21.20
2014,07,01,10,54,21.20
2014,07,01,10,55,21.20
2014,07,01,10,56,21.20
2014,07,01,10,57,21.20
2014,07,01,10,58,21.20
2014,07,01,10,59,21.20
2014,07,01,11,00,21.20
2014,07,01,11,01,21.20
2014,07,01,11,02,21.20
2014,07,01,11,03,21.20
2014,07,01,11,04,21.20
2014,07,01,11,05,21.30
2014,07,01,11,06,21.30
2014,07,01,11,07,21.40
2014,07,01,11,08,21.40
2014,07,01,11,09,21.50
2014,07,01,11,10,21.50
2014,07,01,11,11,21.60
2014,07,01,11,12,21.60
2014,07,01,11,13,21.70
2014,07,01,11,14,21.70
2014,07,01,11,15,21.70
2014,07,01,11,16,21.60
2014,07,01,11,17,21.50
2014,07,01,11,18,21.50
2014,07,01,11,19,21.40
2014,07,01,11,20,21.40
2014,07,01,11,21,21.40
2014,07,01,11,22,21.40
2014,07,01,11,23,21.40
2014,07,01,11,24,21.50
2014,07,01,11,25,21.50
2014,07,01,11,26,21.60
2014,07,01,11,27,21.70
2014,07,01,11,28,21.80
2014,07,01,11,29,21.90
2014,07,01,11,30,21.90
2014,07,01,11,31,21.90
2014,07,01,11,32,22.00
2014,07,01,11,33,22.00
2014,07,01,11,34,22.00
2014,07,01,11,35,22.10
2014,07,01,11,36,22.20
2014,07,01,11,37,22.10
2014,07,01,11,38,22.10
2014,07,01,11,39,22.10
2014,07,01,11,40,22.10
2014,07,01,11,41,22.10
2014,07,01,11,42,22.20
2014,07,01,11,43,22.30
2014,07,01,11,44,22.30
2014,07,01,11,45,22.40
2014,07,01,11,46,22.50
2014,07,01,11,47,22.60
2014,07,01,11,48,22.50
2014,07,01,11,49,22.50
2014,07,01,11,50,22.50
2014,07,01,11,51,22.40
2014,07,01,11,52,22.40
2014,07,01,11,53,22.30
2014,07,01,11,54,22.30
2014,07,01,11,55,22.30
2014,07,01,11,56,22.20
2014,07,01,11,57,22.20
2014,07,01,11,58,22.10
2014,07,01,11,59,22.10
2014,07,01,12,00,22.00
2014,07,01,12,01,22.00
2014,07,01,12,02,22.00
2014,07,01,12,03,22.10
2014,07,01,12,04,22.10
2014,07,01,12,05,22.20
2014,07,01,12,06,22.20
2014,07,01,12,07,22.30
2014,07,01,12,08,22.30
2014,07,01,12,09,22.30
2014,07,01,12,10,22.30
2014,07,01,12,11,22.40
2014,07,01,12,12,22.40
2014,07,01,12,13,22.40
2014,07,01,12,14,22.50
2014,07,01,12,15,22.70
2014,07,01,12,16,22.80
2014,07,01,12,17,22.90
2014,07,01,12,18,23.00
2014,07,01,12,19,23.10
2014,07,01,12,20,23.20
2014,07,01,12,21,23.30
2014,07,01,12,22,23.30
2014,07,01,12,23,23.40
2014,07,01,12,24,23.50
2014,07,01,12,25,23.60
2014,07,01,12,26,23.70
2014,07,01,12,27,23.70
2014,07,01,12,28,23.80
2014,07,01,12,29,23.90
2014,07,01,12,30,23.90
2014,07,01,12,31,23.90
2014,07,01,12,32,23.90
2014,07,01,12,33,23.90
2014,07,01,12,34,23.90
2014,07,01,12,35,23.90
2014,07,01,12,36,23.90
2014,07,01,12,37,23.80
2014,07,01,12,38,23.70
2014,07,01,12,39,23.50
2014,07,01,12,40,23.40
2014,07,01,12,41,23.40
2014,07,01,12,42,23.30
2014,07,01,12,43,23.40
2014,07,01,12,44,23.40
2014,07,01,12,45,23.40
2014,07,01,12,46,23.50
2014,07,01,12,47,23.60
2014,07,01,12,48,23.60
2014,07,01,12,49,23.60
2014,07,01,12,50,23.60
2014,07,01,12,51,23.60
2014,07,01,12,52,23.60
2014,07,01,12,53,23.60
2014,07,01,12,54,23.60
2014,07,01,12,55,23.60
2014,07,01,12,56,23.50
2014,07,01,12,57,23.50
2014,07,01,12,58,23.60
2014,07,01,12,59,23.60
2014,07,01,13,00,23.70
2014,07,01,13,01,23.80
2014,07,01,13,02,23.90
2014,07,01,13,03,24.00
2014,07,01,13,04,24.20
2014,07,01,13,05,24.30
2014,07,01,13,06,24.40
2014,07,01,13,07,24.50
2014,07,01,13,08,24.60
2014,07,01,13,09,24.70
2014,07,01,13,10,24.80
2014,07,01,13,11,24.90
2014,07,01,13,12,24.90
2014,07,01,13,13,25.00
2014,07,01,13,14,25.10
2014,07,01,13,15,25.00
2014,07,01,13,16,25.00
2014,07,01,13,17,25.00
2014,07,01,13,18,24.90
2014,07,01,13,19,24.90
2014,07,01,13,20,24.90
2014,07,01,13,21,24.90
2014,07,01,13,22,24.90
2014,07,01,13,23,24.90
2014,07,01,13,24,24.90
2014,07,01,13,25,24.90
2014,07,01,13,26,24.90
2014,07,01,13,27,24.90
2014,07,01,13,28,24.90
2014,07,01,13,29,25.00
2014,07,01,13,30,25.10
2014,07,01,13,31,25.20
2014,07,01,13,32,25.20
2014,07,01,13,33,25.30
2014,07,01,13,34,25.40
2014,07,01,13,35,25.40
2014,07,01,13,36,25.50
2014,07,01,13,37,25.50
2014,07,01,13,38,25.60
2014,07,01,13,39,25.70
2014,07,01,13,40,25.80
2014,07,01,13,41,25.90
2014,07,01,13,42,25.90
2014,07,01,13,43,26.00
2014,07,01,13,44,26.10
2014,07,01,13,45,26.10
2014,07,01,13,46,26.10
2014,07,01,13,47,26.10
2014,07,01,13,48,26.10
2014,07,01,13,49,26.00
2014,07,01,13,50,25.90
2014,07,01,13,51,25.90
2014,07,01,13,52,25.90
2014,07,01,13,53,25.90
2014,07,01,13,54,25.90
2014,07,01,13,55,25.90
2014,07,01,13,56,26.00
2014,07,01,13,57,26.00
2014,07,01,13,58,26.00
2014,07,01,13,59,26.00
2014,07,01,14,00,26.10
2014,07,01,14,01,26.10
2014,07,01,14,02,26.20
2014,07,01,14,03,26.20
2014,07,01,14,04,26.20
2014,07,01,14,05,26.30
2014,07,01,14,06,26.40
2014,07,01,14,07,26.50
2014,07,01,14,08,26.60
2014,07,01,14,09,26.70
2014,07,01,14,10,26.80
2014,07,01,14,11,26.80
2014,07,01,14,12,26.90
2014,07,01,14,13,26.90
2014,07,01,14,14,26.90
2014,07,01,14,15,26.80
2014,07,01,14,16,26.70
2014,07,01,14,17,26.60
2014,07,01,14,18,26.50
2014,07,01,14,19,26.40
2014,07,01,14,20,26.30
2014,07,01,14,21,26.30
2014,07,01,14,22,26.30
2014,07,01,14,23,26.30
2014,07,01,14,24,26.20
2014,07,01,14,25,26.30
2014,07,01,14,26,26.30
2014,07,01,14,27,26.30
2014,07,01,14,28,26.40
2014,07,01,14,29,26.50
2014,07,01,14,30,26.60
2014,07,01,14,31,26.60
2014,07,01,14,32,26.60
2014,07,01,14,33,26.60
2014,07,01,14,34,26.60
2014,07,01,14,35,26.60
2014,07,01,14,36,26.60
2014,07,01,14,37,26.70
2014,07,01,14,38,26.80
2014,07,01,14,39,26.90
2014,07,01,14,40,26.90
2014,07,01,14,41,26.90
2014,07,01,14,42,26.90
2014,07,01,14,43,26.90
2014,07,01,14,44,26.90
2014,07,01,14,45,26.90
2014,07,01,14,46,26.90
2014,07,01,14,47,26.80
2014,07,01,14,48,26.80
2014,07,01,14,49,26.80
2014,07,01,14,50,26.80
2014,07,01,14,51,26.80
2014,07,01,14,52,26.80
2014,07,01,14,53,26.80
2014,07,01,14,54,26.80
2014,07,01,14,55,26.90
2014,07,01,14,56,26.90
2014,07,01,14,57,27.00
2014,07,01,14,58,27.10
2014,07,01,14,59,27.20
2014,07,01,15,00,27.20
2014,07,01,15,01,27.30
2014,07,01,15,02,27.30
2014,07,01,15,03,27.40
2014,07,01,15,04,27.40
2014,07,01,15,05,27.40
2014,07,01,15,06,27.50
2014,07,01,15,07,27.50
2014,07,01,15,08,27.50
2014,07,01,15,09,27.50
2014,07,01,15,10,27.50
2014,07,01,15,11,27.40
2014,07,01,15,12,27.40
2014,07,01,15,13,27.30
2014,07,01,15,14,27.30
2014,07,01,15,15,27.20
2014,07,01,15,16,27.20
2014,07,01,15,17,27.20
2014,07,01,15,18,27.30
2014,07,01,15,19,27.30
2014,07,01,15,20,27.30
2014,07,01,15,21,27.40
2014,07,01,15,22,27.40
2014,07,01,15,23,27.40
2014,07,01,15,24,27.40
2014,07,01,15,25,27.40
2014,07,01,15,26,27.40
2014,07,01,15,27,27.40
2014,07,01,15,28,27.30
2014,07,01,15,29,27.30
2014,07,01,15,30,27.40
2014,07,01,15,31,27.40
2014,07,01,15,32,27.50
2014,07,01,15,33,27.50
2014,07,01,15,34,27.40
2014,07,01,15,35,27.40
2014,07,01,15,36,27.40
2014,07,01,15,37,27.40
2014,07,01,15,38,27.40
2014,07,01,15,39,27.30
2014,07,01,15,40,27.20
2014,07,01,15,41,27.10
2014,07,01,15,42,27.10
2014,07,01,15,43,27.00
2014,07,01,15,44,27.00
2014,07,01,15,45,27.00
2014,07,01,15,46,27.00
2014,07,01,15,47,26.90
2014,07,01,15,48,26.90
2014,07,01,15,49,26.80
2014,07,01,15,50,26.70
2014,07,01,15,51,26.60
2014,07,01,15,52,26.40
2014,07,01,15,53,26.40
2014,07,01,15,54,26.30
2014,07,01,15,55,26.30
2014,07,01,15,56,26.30
2014,07,01,15,57,26.30
2014,07,01,15,58,26.30
2014,07,01,15,59,26.30
2014,07,01,16,00,26.30
2014,07,01,16,01,26.30
2014,07,01,16,02,26.30
2014,07,01,16,03,26.30
2014,07,01,16,04,26.40
2014,07,01,16,05,26.40
2014,07,01,16,06,26.30
2014,07,01,16,07,26.30
2014,07,01,16,08,26.30
2014,07,01,16,09,26.30
2014,07,01,16,10,26.20
2014,07,01,16,11,26.10
2014,07,01,16,12,25.90
2014,07,01,16,13,25.80
2014,07,01,16,14,25.80
2014,07,01,16,15,25.80
2014,07,01,16,16,25.70
2014,07,01,16,17,25.60
2014,07,01,16,18,25.60
2014,07,01,16,19,25.50
2014,07,01,16,20,25.40
2014,07,01,16,21,25.30
2014,07,01,16,22,25.10
2014,07,01,16,23,25.10
2014,07,01,16,24,25.00
2014,07,01,16,25,25.00
2014,07,01,16,26,25.10
2014,07,01,16,27,25.00
2014,07,01,16,28,25.00
2014,07,01,16,29,24.90
2014,07,01,16,30,24.90
2014,07,01,16,31,24.90
2014,07,01,16,32,25.00
2014,07,01,16,33,25.00
2014,07,01,16,34,25.10
2014,07,01,16,35,25.20
2014,07,01,16,36,25.20
2014,07,01,16,37,25.30
2014,07,01,16,38,25.30
2014,07,01,16,39,25.40
2014,07,01,16,40,25.40
2014,07,01,16,41,25.40
2014,07,01,16,42,25.40
2014,07,01,16,43,25.40
2014,07,01,16,44,25.40
2014,07,01,16,45,25.40
2014,07,01,16,46,25.30
2014,07,01,16,47,25.30
2014,07,01,16,48,25.30
2014,07,01,16,49,25.30
2014,07,01,16,50,25.30
2014,07,01,16,51,25.20
2014,07,01,16,52,25.20
2014,07,01,16,53,25.10
2014,07,01,16,54,25.10
2014,07,01,16,55,25.00
2014,07,01,16,56,24.90
2014,07,01,16,57,24.80
2014,07,01,16,58,24.80
2014,07,01,16,59,24.70
2014,07,01,17,00,24.60
2014,07,01,17,01,24.60
2014,07,01,17,02,24.60
2014,07,01,17,03,24.60
2014,07,01,17,04,24.70
2014,07,01,17,05,24.80
2014,07,01,17,06,24.90
2014,07,01,17,07,24.90
2014,07,01,17,08,24.90
2014,07,01,17,09,25.00
2014,07,01,17,10,25.10
2014,07,01,17,11,25.10
2014,07,01,17,12,25.00
2014,07,01,17,13,24.90
2014,07,01,17,14,24.90
2014,07,01,17,15,24.90
2014,07,01,17,16,24.90
2014,07,01,17,17,24.90
2014,07,01,17,18,24.90
2014,07,01,17,19,25.00